EW3230 Weather Reports


time (UTC)temp
C
wind
direction
speed
KPH
gust
KPH
rain 1hr
cm
rain 24hr
cm
rain mn
cm
humidity
%
barometer
mb
20260508173635 17 189 3.2 9.7 0.00 0.00 0.00 44 1008.8
20260508172635 17 134 3.2 8.0 0.00 0.00 0.00 42 1009.0
20260508172135 18 237 3.2 14.5 0.00 0.00 0.00 40 1009.1
20260508170633 18 155 3.2 11.3 0.00 0.00 0.00 35 1009.1
20260508170139 17 255 1.6 9.7 0.00 0.00 0.00 36 1009.1
20260508165135 17 287 1.6 11.3 0.00 0.00 0.00 36 1009.4
20260508163634 17 347 1.6 9.7 0.00 0.00 0.00 34 1009.5
20260508162633 17 221 3.2 12.9 0.00 0.00 0.00 36 1009.5
20260508161629 17 239 0.0 6.4 0.00 0.00 0.00 35 1009.6
20260508160629 16 69 1.6 6.4 0.00 0.00 0.00 35 1009.7
20260508155628 16 115 3.2 12.9 0.00 0.00 0.00 35 1009.9
20260508154628 16 272 3.2 12.9 0.00 0.00 0.00 36 1009.8
20260508153630 16 302 1.6 12.9 0.00 0.00 0.00 36 1009.9
20260508152641 16 236 1.6 6.4 0.00 0.00 0.00 35 1010.0
20260508151629 15 314 1.6 11.3 0.00 0.00 0.00 38 1010.1
20260508150629 15 263 1.6 9.7 0.00 0.00 0.00 37 1010.2
20260508150131 15 250 1.6 11.3 0.00 0.00 0.00 35 1010.4
20260508144622 15 351 1.6 9.7 0.00 0.00 0.00 37 1010.4
20260508144124 15 253 1.6 11.3 0.00 0.00 0.00 38 1010.4
20260508142624 15 287 1.6 16.1 0.00 0.00 0.00 36 1010.5
20260508141622 15 232 1.6 8.0 0.00 0.00 0.00 37 1010.5
20260508140622 15 280 3.2 9.7 0.00 0.00 0.00 39 1010.5
20260508140122 15 304 1.6 6.4 0.00 0.00 0.00 38 1010.6
20260508134622 14 287 1.6 11.3 0.00 0.00 0.00 44 1010.6
20260508133621 14 101 0.0 4.8 0.00 0.00 0.00 41 1010.6
20260508132622 13 41 0.0 6.4 0.00 0.00 0.00 45 1010.6
20260508131616 13 300 0.0 6.4 0.00 0.00 0.00 46 1010.7
20260508131117 13 283 0.0 6.4 0.00 0.00 0.00 47 1010.7
20260508130117 13 129 1.6 4.8 0.00 0.00 0.00 46 1010.7
20260508124616 13 229 1.6 8.0 0.00 0.00 0.00 48 1010.7
20260508123617 12 330 1.6 8.0 0.00 0.00 0.00 50 1010.6
20260508122618 12 285 0.0 3.2 0.00 0.03 0.00 54 1010.7
20260508121617 11 257 0.0 4.8 0.00 0.03 0.00 60 1010.8
20260508121118 10 266 0.0 3.2 0.00 0.05 0.00 61 1010.8
20260508115615 9 267 0.0 3.2 0.00 0.08 0.00 62 1010.9
20260508114613 9 235 0.0 3.2 0.00 0.08 0.00 64 1011.0
20260508113610 9 249 0.0 1.6 0.00 0.08 0.00 65 1010.9
20260508112613 9 229 0.0 1.6 0.00 0.10 0.00 66 1010.7
20260508111611 8 252 0.0 3.2 0.00 0.13 0.00 65 1010.7
20260508110611 8 280 0.0 1.6 0.00 0.13 0.00 68 1010.6
20260508105611 8 280 0.0 1.6 0.00 0.13 0.00 70 1010.6
20260508104611 7 279 0.0 1.6 0.00 0.15 0.00 73 1010.6
20260508103611 6 281 0.0 0.0 0.00 0.18 0.00 75 1010.4
20260508103111 6 281 0.0 0.0 0.00 0.18 0.00 76 1010.2
20260508102106 6 281 0.0 0.0 0.00 0.20 0.00 78 1010.1
20260508100604 5 281 0.0 0.0 0.00 0.23 0.00 80 1010.1
20260508095604 5 281 0.0 0.0 0.00 0.25 0.00 80 1010.0